QPF
0.02 0.01 0.00 0.00 0.03 0.01 0.00 0.00 0.00 0.00 0.00 0.00 0.00 0.00 0.00 0.00 0.00 0.00 0.00 0.00 0.00 0.00 0.00 0.00 0.00 0.00 0.00 0.00 0.00 0.00 0.00 0.00 0.00 0.00 0.00 0.00 0.00 0.00 0.00 0.00 0.00 0.00 0.00
0.02 0.01 0.00 0.05 0.06 0.01 0.00 0.00 0.00 0.01 0.01 0.00 0.00 0.00 0.00 0.00 0.00 0.00 0.00 0.00 0.00 0.00 0.00 0.00 0.00 0.00 0.00 0.00 0.00 0.00 0.00 0.00 0.00 0.00 0.00 0.00 0.00 0.00 0.00 0.00 0.00 0.00 0.00
0.00 0.01 0.01 0.18 0.12 0.02 0.00 0.00 0.00 0.00 0.01 0.00 0.00 0.00 0.00 0.00 0.00 0.00 0.00 0.00 0.00 0.00 0.00 0.00 0.00 0.00 0.00 0.00 0.00 0.00 0.00 0.00 0.00 0.00 0.00 0.00 0.00 0.00 0.00 0.00 0.00 0.00 0.00
0.10 0.05 0.06 0.16 0.09 0.02 0.02 0.01 0.04 0.03 0.04 0.01 0.00 0.00 0.00 0.00 0.00 0.00 0.00 0.00 0.00 0.00 0.00 0.00 0.00 0.00 0.00 0.00 0.00 0.00 0.00 0.00 0.00 0.00 0.00 0.00 0.00 0.00 0.00 0.00 0.00 0.00 0.00
0.19 0.16 0.12 0.28 0.20 0.15 0.11 0.05 0.04 0.04 0.04 0.03 0.01 0.00 0.01 0.01 0.01 0.01 0.00 0.00 0.00 0.00 0.00 0.00 0.00 0.00 0.00 0.00 0.00 0.00 0.00 0.00 0.00 0.00 0.00 0.00 0.00 0.00 0.00 0.00 0.00 0.00 0.00
0.13 0.12 0.16 0.13 0.15 0.19 0.14 0.09 0.06 0.05 0.03 0.02 0.01 0.00 0.00 0.00 0.00 0.00 0.00 0.00 0.00 0.00 0.00 0.00 0.00 0.00 0.00 0.00 0.00 0.00 0.00 0.00 0.00 0.00 0.00 0.00 0.01 0.00 0.00 0.00 0.00 0.00 0.00
0.22 0.17 0.18 0.13 0.07 0.09 0.07 0.06 0.05 0.03 0.02 0.01 0.01 0.00 0.00 0.00 0.00 0.00 0.00 0.00 0.00 0.00 0.00 0.00 0.00 0.00 0.00 0.00 0.00 0.00 0.00 0.00 0.00 0.00 0.00 0.00 0.00 0.00 0.00 0.00 0.00 0.00 0.00
0.14 0.15 0.14 0.12 0.08 0.06 0.01 0.01 0.01 0.01 0.01 0.00 0.00 0.00 0.00 0.00 0.00 0.00 0.00 0.00 0.00 0.00 0.00 0.00 0.00 0.00 0.00 0.00 0.00 0.00 0.00 0.00 0.00 0.00 0.00 0.00 0.00 0.00 0.00 0.00 0.00 0.00 0.00
0.01 0.02 0.02 0.02 0.01 0.00 0.01 0.00 0.01 0.01 0.00 0.00 0.00 0.00 0.00 0.00 0.00 0.00 0.00 0.00 0.00 0.00 0.00 0.00 0.00 0.00 0.00 0.00 0.00 0.00 0.00 0.00 0.00 0.00 0.00 0.00 0.00 0.00 0.00 0.00 0.00 0.00 0.00
0.01 0.00 0.00 0.00 0.00 0.00 0.01 0.01 0.01 0.00 0.00 0.00 0.00 0.00 0.00 0.00 0.00 0.00 0.00 0.00 0.00 0.00 0.00 0.00 0.00 0.00 0.00 0.00 0.00 0.00 0.00 0.00 0.00 0.00 0.00 0.00 0.00 0.00 0.00 0.00 0.00 0.00 0.00
0.00 0.01 0.01 0.01 0.01 0.01 0.02 0.01 0.00 0.00 0.00 0.00 0.00 0.00 0.00 0.00 0.00 0.00 0.00 0.00 0.00 0.00 0.00 0.00 0.00 0.00 0.00 0.00 0.00 0.00 0.00 0.00 0.00 0.00 0.00 0.00 0.00 0.00 0.00 0.00 0.00 0.00 0.00
0.00 0.01 0.02 0.01 0.01 0.01 0.01 0.00 0.00 0.00 0.00 0.00 0.00 0.00 0.00 0.00 0.00 0.00 0.00 0.00 0.00 0.00 0.00 0.00 0.00 0.00 0.00 0.00 0.00 0.00 0.00 0.00 0.00 0.00 0.00 0.00 0.00 0.00 0.00 0.00 0.00 0.02 0.01
0.00 0.01 0.01 0.01 0.00 0.00 0.00 0.00 0.00 0.00 0.00 0.00 0.00 0.00 0.00 0.00 0.00 0.00 0.00 0.00 0.00 0.00 0.00 0.00 0.00 0.00 0.00 0.00 0.00 0.00 0.00 0.00 0.00 0.00 0.00 0.00 0.00 0.00 0.00 0.00 0.00 0.01 0.01
0.00 0.00 0.00 0.00 0.00 0.00 0.00 0.00 0.00 0.00 0.00 0.00 0.00 0.00 0.00 0.00 0.00 0.00 0.00 0.00 0.00 0.00 0.00 0.00 0.00 0.00 0.00 0.00 0.00 0.00 0.00 0.00 0.00 0.00 0.00 0.00 0.00 0.00 0.00 0.00 0.00 0.00 0.00
0.00 0.00 0.00 0.00 0.00 0.00 0.00 0.00 0.00 0.00 0.00 0.00 0.00 0.00 0.00 0.00 0.00 0.00 0.00 0.00 0.00 0.00 0.00 0.00 0.00 0.00 0.00 0.00 0.00 0.00 0.00 0.00 0.00 0.00 0.00 0.00 0.00 0.00 0.00 0.00 0.00 0.00 0.00
0.00 0.00 0.00 0.00 0.00 0.00 0.00 0.00 0.00 0.00 0.00 0.00 0.00 0.00 0.00 0.00 0.00 0.00 0.00 0.00 0.00 0.00 0.00 0.00 0.00 0.00 0.00 0.00 0.00 0.00 0.00 0.01 0.00 0.00 0.00 0.00 0.00 0.00 0.00 0.00 0.00 0.00 0.00
0.00 0.00 0.00 0.00 0.00 0.00 0.00 0.00 0.00 0.00 0.00 0.00 0.00 0.00 0.00 0.00 0.00 0.00 0.00 0.00 0.00 0.00 0.00 0.00 0.00 0.00 0.00 0.00 0.00 0.00 0.00 0.00 0.00 0.00 0.00 0.00 0.00 0.00 0.00 0.00 0.00 0.00 0.00
0.00 0.00 0.00 0.00 0.00 0.00 0.00 0.00 0.00 0.00 0.00 0.00 0.00 0.00 0.00 0.00 0.00 0.00 0.00 0.00 0.00 0.00 0.00 0.00 0.00 0.00 0.00 0.00 0.00 0.00 0.00 0.01 0.01 0.00 0.00 0.00 0.00 0.00 0.00 0.00 0.00 0.00 0.00
0.00 0.00 0.00 0.00 0.00 0.00 0.00 0.00 0.00 0.00 0.00 0.00 0.00 0.00 0.00 0.00 0.00 0.00 0.00 0.00 0.00 0.00 0.00 0.00 0.00 0.00 0.00 0.00 0.00 0.00 0.01 0.01 0.00 0.00 0.00 0.00 0.00 0.00 0.00 0.00 0.00 0.00 0.00
0.04 0.02 0.00 0.00 0.00 0.00 0.00 0.00 0.00 0.00 0.00 0.00 0.00 0.00 0.00 0.00 0.00 0.00 0.00 0.00 0.00 0.00 0.00 0.00 0.00 0.00 0.00 0.00 0.00 0.00 0.00 0.01 0.00 0.00 0.00 0.00 0.00 0.00 0.00 0.00 0.00 0.00 0.00
0.01 0.00 0.00 0.00 0.00 0.00 0.00 0.00 0.00 0.00 0.00 0.00 0.00 0.01 0.01 0.01 0.00 0.00 0.00 0.00 0.00 0.00 0.00 0.00 0.00 0.00 0.00 0.00 0.00 0.01 0.01 0.01 0.00 0.00 0.00 0.00 0.00 0.00 0.00 0.00 0.00 0.00 0.00
0.00 0.00 0.00 0.00 0.00 0.00 0.00 0.00 0.00 0.00 0.00 0.02 0.02 0.00 0.00 0.00 0.00 0.00 0.00 0.00 0.00 0.00 0.00 0.00 0.00 0.00 0.00 0.01 0.00 0.01 0.00 0.00 0.00 0.00 0.00 0.00 0.00 0.00 0.00 0.00 0.00 0.00 0.00
0.00 0.00 0.00 0.00 0.00 0.00 0.00 0.00 0.00 0.00 0.01 0.01 0.01 0.00 0.01 0.01 0.00 0.00 0.00 0.00 0.00 0.00 0.00 0.00 0.00 0.02 0.03 0.06 0.03 0.04 0.01 0.00 0.00 0.01 0.00 0.00 0.00 0.00 0.00 0.00 0.00 0.00 0.00
0.00 0.00 0.00 0.00 0.00 0.00 0.00 0.00 0.00 0.00 0.00 0.01 0.01 0.02 0.01 0.00 0.00 0.00 0.00 0.00 0.00 0.00 0.00 0.00 0.00 0.00 0.01 0.00 0.01 0.04 0.06 0.01 0.01 0.01 0.01 0.00 0.00 0.00 0.00 0.00 0.00 0.00 0.00
0.00 0.00 0.00 0.00 0.00 0.00 0.00 0.00 0.00 0.00 0.00 0.02 0.01 0.00 0.00 0.00 0.00 0.00 0.00 0.00 0.00 0.00 0.01 0.02 0.01 0.02 0.05 0.06 0.03 0.02 0.02 0.06 0.05 0.06 0.04 0.01 0.01 0.00 0.00 0.00 0.00 0.00 0.00
0.00 0.00 0.00 0.00 0.00 0.00 0.00 0.00 0.00 0.00 0.00 0.00 0.00 0.00 0.00 0.00 0.00 0.00 0.01 0.02 0.00 0.01 0.01 0.02 0.02 0.01 0.03 0.03 0.05 0.05 0.04 0.08 0.10 0.07 0.05 0.03 0.01 0.00 0.00 0.00 0.00 0.00 0.00
MSLP
1009.15 1010.10 1011.10 1011.68 1011.85 1012.21 1013.43 1014.25 1014.67 1015.40 1015.11 1015.68 1015.88 1015.97 1016.27 1016.32 1016.78 1016.93 1017.00 1017.14 1017.05 1017.24 1017.18 1017.33 1017.38 1017.51 1017.68 1017.72 1017.69 1017.93 1018.16 1018.34 1018.57 1018.87 1019.06 1019.16 1019.39 1019.50 1019.69 1019.63 1019.46 1019.66 1019.51
1008.81 1009.73 1010.67 1011.64 1011.74 1012.67 1013.50 1013.47 1014.22 1014.68 1015.38 1016.03 1016.34 1015.92 1016.32 1016.57 1016.91 1016.70 1016.97 1016.98 1016.96 1017.00 1017.30 1017.48 1017.45 1017.49 1017.78 1017.82 1018.06 1018.32 1018.48 1018.33 1018.81 1018.97 1019.06 1019.33 1019.39 1019.29 1019.36 1019.46 1019.15 1018.80 1018.95
1008.14 1009.34 1010.42 1011.53 1012.15 1012.24 1012.81 1013.12 1013.55 1014.17 1014.91 1015.64 1016.34 1016.25 1015.99 1016.42 1016.52 1017.00 1017.00 1016.97 1016.97 1017.04 1017.32 1017.44 1017.46 1017.44 1017.67 1018.00 1018.41 1018.55 1018.44 1018.36 1018.67 1018.84 1018.95 1018.79 1019.00 1018.93 1019.19 1019.18 1018.79 1018.65 1018.40
1008.97 1009.49 1009.66 1010.85 1011.34 1011.80 1012.52 1012.86 1013.55 1013.99 1014.66 1015.28 1015.78 1015.99 1016.18 1016.25 1016.40 1016.81 1016.66 1016.61 1016.85 1016.85 1016.92 1017.24 1017.40 1017.59 1017.82 1018.13 1018.46 1018.57 1018.47 1018.54 1018.63 1018.71 1018.74 1018.62 1018.53 1018.57 1018.73 1018.65 1018.72 1018.38 1018.07
1008.76 1006.26 1009.79 1010.60 1010.94 1011.52 1012.27 1012.92 1013.33 1013.74 1014.27 1014.77 1015.46 1015.79 1015.87 1015.86 1016.08 1016.16 1016.46 1016.55 1016.63 1016.60 1016.80 1017.13 1017.30 1017.63 1017.88 1018.07 1018.25 1018.65 1018.70 1018.73 1018.72 1018.79 1018.77 1018.24 1018.25 1018.54 1018.51 1018.44 1018.36 1018.21 1017.85
1009.84 1009.68 1010.16 1011.00 1011.42 1012.18 1012.62 1013.06 1013.60 1013.89 1014.33 1014.81 1014.91 1015.30 1015.17 1015.37 1015.54 1015.96 1016.33 1016.44 1016.54 1016.51 1016.80 1016.97 1017.26 1017.61 1017.80 1018.05 1018.16 1018.57 1018.76 1018.95 1018.90 1018.89 1018.84 1018.90 1018.77 1018.48 1018.57 1018.46 1018.32 1018.55 1018.56
1010.45 1010.75 1010.04 1011.64 1012.22 1012.65 1013.00 1013.28 1013.47 1014.02 1014.25 1014.60 1014.46 1014.83 1014.91 1015.15 1015.42 1015.73 1016.03 1016.23 1016.38 1016.58 1016.79 1016.94 1017.12 1017.09 1017.26 1017.62 1017.98 1018.22 1018.40 1018.54 1018.71 1018.89 1019.00 1018.82 1018.80 1018.49 1018.55 1018.36 1018.47 1018.79 1018.76
1010.80 1010.58 1010.84 1011.72 1012.27 1012.95 1012.91 1013.29 1013.09 1013.55 1013.70 1014.05 1014.05 1014.45 1014.55 1015.10 1015.41 1015.82 1016.00 1016.25 1016.22 1016.25 1016.52 1016.59 1016.69 1016.73 1017.01 1017.26 1017.54 1017.86 1018.04 1017.97 1017.98 1018.11 1018.24 1018.18 1018.12 1018.07 1018.19 1018.16 1018.35 1018.41 1018.30
1010.63 1010.92 1011.28 1011.75 1011.94 1012.50 1012.66 1012.92 1013.05 1013.13 1013.47 1013.73 1013.72 1014.07 1014.55 1015.11 1015.52 1015.87 1016.06 1016.43 1016.30 1016.17 1016.17 1016.31 1016.26 1016.42 1016.66 1016.87 1017.10 1017.39 1017.38 1017.09 1016.60 1017.02 1017.03 1017.14 1017.34 1017.43 1017.62 1018.02 1018.04 1018.12 1017.91
1010.35 1010.71 1011.16 1011.50 1011.65 1012.15 1012.44 1012.59 1012.79 1012.91 1013.14 1013.28 1013.38 1014.03 1014.56 1014.79 1015.35 1015.68 1016.00 1016.10 1016.04 1015.91 1015.81 1015.81 1015.79 1015.89 1016.11 1016.38 1016.68 1016.86 1016.96 1016.81 1016.59 1016.53 1016.98 1016.95 1016.96 1016.90 1017.01 1017.35 1017.35 1017.62 1017.53
1009.93 1010.39 1010.85 1011.24 1011.64 1011.72 1011.83 1012.39 1012.60 1012.65 1012.73 1012.96 1013.26 1013.69 1014.04 1014.36 1014.88 1015.22 1015.52 1015.71 1015.66 1015.47 1015.24 1014.94 1015.03 1015.11 1015.33 1015.66 1016.00 1016.20 1016.29 1016.35 1016.39 1016.36 1016.22 1016.10 1016.09 1016.12 1015.99 1015.97 1016.16 1016.64 1016.76
1009.62 1009.98 1010.39 1010.75 1011.07 1011.44 1011.73 1012.03 1012.25 1012.39 1012.54 1012.80 1013.18 1013.44 1013.55 1013.76 1014.15 1014.60 1014.92 1015.25 1015.24 1015.14 1014.95 1014.71 1014.70 1014.58 1014.59 1014.86 1015.48 1015.76 1015.84 1016.09 1016.30 1016.22 1016.05 1015.80 1015.64 1015.35 1015.03 1014.93 1014.87 1015.27 1015.50
1009.35 1009.59 1009.92 1010.30 1010.63 1011.08 1011.54 1011.81 1012.09 1012.29 1012.36 1012.60 1012.78 1012.86 1012.80 1012.75 1013.25 1013.57 1013.94 1014.29 1014.53 1014.75 1014.54 1014.45 1014.45 1014.45 1014.64 1015.00 1015.19 1015.23 1015.45 1015.69 1015.72 1015.71 1015.44 1015.22 1014.90 1014.51 1014.17 1014.00 1014.01 1014.30 1014.48
1008.84 1009.26 1009.62 1010.01 1010.33 1010.79 1011.11 1011.39 1011.54 1011.57 1011.78 1011.91 1011.79 1011.74 1011.72 1011.61 1011.89 1012.23 1013.00 1013.49 1013.77 1014.10 1014.01 1013.99 1014.04 1014.19 1014.39 1014.37 1014.39 1014.35 1014.55 1014.52 1014.64 1014.66 1014.52 1014.19 1013.79 1013.79 1013.94 1013.93 1014.15 1014.21 1014.43
1008.47 1008.93 1009.29 1009.57 1009.89 1010.05 1010.23 1010.27 1010.51 1010.48 1010.62 1010.79 1010.79 1010.75 1010.82 1010.99 1011.78 1011.57 1011.78 1012.33 1012.77 1013.10 1013.28 1013.34 1013.17 1013.04 1013.10 1013.25 1013.20 1013.11 1013.16 1013.45 1013.88 1013.74 1013.52 1013.32 1013.25 1013.24 1013.39 1013.42 1013.57 1013.79 1013.94
1008.03 1008.34 1008.51 1008.47 1008.74 1009.02 1009.28 1009.43 1009.49 1009.73 1009.92 1010.07 1010.17 1010.41 1010.65 1011.17 1011.49 1011.85 1011.85 1012.07 1012.17 1012.14 1012.31 1012.29 1012.20 1012.24 1012.41 1012.38 1012.39 1012.16 1011.90 1012.06 1012.56 1012.35 1012.53 1012.62 1012.57 1012.66 1012.78 1012.93 1012.97 1013.18 1013.44
1007.40 1007.45 1007.55 1007.62 1007.30 1007.85 1008.01 1008.43 1008.68 1008.91 1008.96 1009.37 1009.63 1009.98 1010.19 1010.36 1010.84 1011.29 1011.64 1011.86 1011.87 1011.99 1011.92 1011.52 1011.40 1011.42 1011.41 1011.31 1011.13 1010.87 1010.67 1010.77 1010.73 1010.66 1010.84 1011.26 1011.73 1011.93 1012.07 1012.17 1012.37 1012.65 1012.94
1006.73 1006.80 1006.71 1006.64 1006.75 1006.69 1006.91 1007.18 1007.64 1008.07 1008.55 1008.95 1009.04 1009.39 1009.56 1009.86 1010.41 1010.68 1010.87 1011.27 1011.83 1011.75 1011.14 1010.85 1010.61 1010.57 1010.53 1010.47 1010.28 1010.01 1009.95 1010.03 1009.48 1010.05 1010.29 1010.20 1010.59 1011.04 1011.38 1011.50 1011.70 1012.05 1012.33
1006.12 1006.32 1006.28 1006.27 1006.27 1006.26 1006.33 1006.43 1006.76 1007.11 1007.63 1008.01 1008.09 1008.25 1008.51 1009.20 1009.86 1010.60 1010.94 1010.66 1010.11 1009.78 1009.56 1009.34 1009.30 1009.36 1009.40 1009.32 1008.88 1008.87 1009.58 1009.29 1009.67 1009.07 1009.51 1009.33 1009.86 1010.36 1010.64 1010.82 1011.01 1011.27 1011.56
1005.11 1005.48 1005.72 1005.69 1005.59 1005.65 1005.68 1005.81 1005.85 1006.38 1006.83 1007.13 1007.09 1007.22 1007.24 1008.14 1009.16 1009.45 1009.60 1009.25 1008.90 1008.44 1008.21 1008.24 1008.07 1007.87 1007.88 1007.94 1008.02 1007.92 1007.75 1008.69 1008.46 1007.97 1007.88 1008.05 1008.86 1009.48 1009.88 1010.06 1010.13 1010.34 1010.41
1004.01 1004.68 1004.95 1005.00 1004.71 1004.53 1004.45 1004.59 1004.80 1005.21 1005.59 1005.79 1006.06 1006.56 1006.23 1007.27 1007.55 1007.36 1007.62 1007.63 1007.27 1007.13 1007.02 1007.17 1006.81 1006.50 1006.58 1006.70 1006.78 1007.26 1007.12 1007.60 1007.77 1006.75 1006.55 1007.10 1007.60 1008.28 1008.78 1009.03 1009.12 1009.14 1009.37
1002.49 1002.54 1002.84 1003.15 1003.44 1003.59 1003.43 1003.59 1003.70 1004.06 1005.00 1004.81 1005.23 1005.52 1005.78 1005.91 1006.36 1005.81 1005.76 1005.87 1005.59 1005.24 1005.09 1005.44 1005.55 1005.21 1005.02 1005.07 1005.12 1005.04 1005.20 1005.33 1005.37 1005.56 1005.83 1006.12 1006.55 1006.97 1007.53 1007.82 1007.95 1008.20 1008.49
1001.17 1001.28 1001.49 1001.46 1001.77 1002.21 1002.22 1002.46 1002.55 1003.10 1003.34 1003.76 1004.18 1004.23 1004.17 1004.22 1004.58 1004.24 1004.06 1003.82 1004.05 1004.20 1003.94 1004.13 1004.01 1004.37 1004.38 1004.54 1005.02 1005.54 1005.18 1004.86 1004.34 1004.61 1004.80 1004.93 1005.10 1005.49 1006.06 1006.55 1007.02 1007.44 1007.80
1000.49 1000.22 1000.08 1000.05 1000.50 1000.90 1001.34 1001.34 1001.27 1001.56 1001.90 1002.33 1003.07 1003.00 1003.29 1003.42 1002.83 1002.95 1002.99 1002.86 1002.27 1002.06 1002.24 1002.32 1002.65 1003.55 1003.04 1002.78 1003.31 1003.22 1003.09 1003.28 1002.73 1003.09 1003.43 1003.94 1004.03 1004.24 1004.68 1005.40 1006.02 1006.67 1007.40
1000.09 999.94 999.73 999.82 1000.08 1000.93 1001.16 1000.08 999.95 1000.02 1000.67 1001.16 1001.58 1001.48 1001.53 1001.79 1001.61 1001.33 1001.10 1001.12 1001.28 1001.07 1002.14 1001.89 1001.91 1001.44 1002.66 1002.90 1004.08 1003.16 1002.08 1002.39 1000.76 1001.14 1002.38 1002.49 1002.72 1002.52 1002.81 1003.70 1005.04 1006.30 1006.96
999.57 998.99 999.04 999.35 999.95 1000.11 1000.73 999.80 998.85 998.77 999.04 999.82 999.95 1000.17 999.94 1000.34 1000.03 999.74 999.96 1000.21 1000.10 1000.96 1001.40 1001.18 1001.24 1001.48 1002.47 1002.28 1001.98 1000.73 1002.26 1000.65 999.86 1000.80 1001.53 1002.60 1002.59 1002.86 1003.99 1004.69 1005.14 1005.97 1006.67
Thickness
5782 5773 5763 5756 5751 5749 5732 5723 5721 5718 5722 5708 5710 5711 5709 5710 5705 5704 5704 5701 5701 5699 5701 5702 5705 5706 5705 5705 5707 5704 5700 5697 5690 5688 5691 5688 5683 5682 5681 5679 5679 5679 5678
5777 5770 5760 5750 5748 5738 5727 5729 5724 5723 5714 5706 5703 5708 5705 5705 5700 5702 5697 5697 5698 5697 5694 5694 5697 5700 5699 5699 5697 5694 5692 5693 5685 5679 5681 5678 5676 5677 5675 5674 5675 5677 5675
5769 5762 5752 5740 5737 5737 5733 5731 5729 5723 5714 5707 5699 5698 5703 5697 5698 5694 5692 5692 5692 5693 5691 5691 5693 5695 5694 5691 5686 5683 5684 5685 5680 5676 5673 5677 5674 5675 5669 5669 5672 5674 5673
5751 5747 5748 5736 5736 5737 5731 5727 5721 5719 5712 5705 5699 5695 5693 5693 5692 5688 5691 5691 5689 5689 5690 5687 5687 5686 5683 5679 5677 5675 5677 5675 5673 5671 5669 5670 5671 5669 5667 5667 5664 5668 5667
5739 5725 5730 5729 5730 5727 5722 5718 5714 5711 5706 5704 5693 5689 5688 5688 5687 5687 5686 5686 5685 5686 5685 5683 5682 5679 5675 5673 5671 5667 5666 5666 5665 5662 5663 5667 5666 5662 5662 5664 5664 5665 5667
5726 5726 5723 5717 5717 5712 5711 5708 5703 5701 5698 5693 5690 5685 5686 5686 5686 5683 5682 5681 5680 5681 5677 5677 5675 5670 5668 5666 5665 5661 5660 5657 5657 5656 5656 5656 5657 5660 5661 5661 5662 5658 5651
5714 5711 5710 5704 5701 5699 5698 5696 5696 5692 5687 5683 5685 5682 5684 5683 5682 5681 5679 5678 5675 5673 5670 5669 5668 5669 5667 5664 5661 5659 5657 5655 5653 5652 5650 5653 5653 5658 5658 5658 5657 5652 5650
5703 5706 5705 5699 5695 5688 5690 5688 5692 5688 5686 5681 5681 5680 5683 5679 5679 5675 5673 5671 5672 5671 5667 5667 5666 5667 5664 5662 5660 5657 5655 5655 5654 5655 5655 5657 5658 5659 5658 5657 5654 5653 5654
5699 5698 5696 5689 5688 5686 5683 5682 5685 5685 5682 5680 5681 5680 5677 5673 5671 5668 5667 5663 5665 5666 5667 5665 5666 5665 5663 5661 5659 5655 5655 5657 5661 5660 5662 5662 5660 5660 5658 5654 5652 5651 5649
5693 5692 5688 5684 5682 5676 5677 5678 5680 5680 5680 5680 5681 5677 5672 5671 5665 5663 5662 5662 5662 5662 5662 5664 5666 5665 5664 5661 5659 5657 5653 5655 5658 5659 5658 5660 5660 5660 5659 5657 5655 5649 5648
5696 5692 5687 5684 5679 5678 5680 5677 5676 5678 5679 5679 5677 5673 5671 5671 5665 5662 5660 5660 5659 5660 5662 5665 5666 5665 5664 5663 5661 5659 5657 5658 5657 5659 5660 5661 5662 5661 5662 5661 5660 5654 5649
5694 5690 5686 5685 5682 5680 5677 5675 5675 5675 5675 5673 5670 5668 5669 5670 5666 5660 5659 5657 5658 5657 5658 5661 5664 5665 5664 5662 5658 5658 5657 5654 5653 5654 5655 5657 5658 5659 5663 5663 5663 5660 5656
5691 5689 5687 5685 5682 5679 5674 5672 5672 5672 5671 5669 5667 5666 5668 5671 5668 5665 5661 5658 5656 5654 5657 5659 5658 5660 5658 5653 5652 5654 5653 5652 5651 5650 5651 5653 5656 5660 5663 5663 5661 5660 5658
5691 5687 5685 5681 5679 5676 5674 5673 5672 5672 5670 5669 5670 5670 5671 5674 5673 5672 5665 5660 5657 5654 5655 5655 5656 5655 5654 5655 5654 5653 5653 5654 5653 5651 5652 5655 5659 5657 5655 5655 5652 5651 5650
5688 5685 5682 5681 5678 5677 5677 5677 5675 5678 5677 5674 5675 5675 5671 5671 5666 5668 5667 5663 5659 5656 5653 5652 5653 5655 5655 5654 5656 5657 5657 5654 5650 5651 5653 5654 5655 5654 5652 5652 5650 5647 5643
5684 5683 5683 5684 5682 5680 5677 5677 5679 5678 5676 5675 5674 5672 5671 5667 5660 5656 5655 5654 5652 5653 5651 5652 5652 5652 5650 5650 5652 5656 5658 5657 5653 5655 5653 5652 5651 5650 5648 5647 5645 5642 5639
5685 5686 5686 5684 5689 5682 5681 5678 5675 5677 5676 5672 5670 5667 5665 5667 5659 5654 5649 5646 5646 5643 5645 5648 5649 5649 5648 5650 5653 5656 5658 5659 5660 5661 5659 5654 5650 5648 5646 5644 5641 5637 5633
5687 5685 5688 5688 5687 5687 5685 5682 5679 5675 5671 5669 5667 5664 5662 5657 5651 5650 5648 5642 5640 5637 5642 5642 5643 5644 5644 5644 5648 5655 5656 5649 5650 5650 5652 5653 5650 5645 5641 5638 5636 5632 5628
5687 5685 5686 5686 5686 5684 5683 5683 5680 5676 5671 5669 5668 5666 5663 5653 5647 5640 5634 5639 5643 5645 5645 5645 5644 5641 5641 5644 5653 5657 5648 5651 5647 5653 5646 5650 5645 5641 5637 5634 5631 5626 5622
5690 5685 5681 5683 5683 5681 5681 5679 5678 5673 5669 5665 5666 5665 5667 5657 5649 5645 5638 5639 5641 5645 5645 5643 5644 5646 5645 5647 5651 5654 5657 5644 5643 5649 5653 5650 5641 5636 5631 5628 5627 5623 5619
5692 5686 5682 5681 5682 5683 5683 5679 5678 5673 5667 5667 5665 5661 5660 5655 5655 5651 5646 5643 5644 5644 5645 5644 5646 5649 5647 5644 5645 5643 5645 5634 5632 5650 5654 5645 5639 5632 5627 5623 5621 5619 5614
5699 5696 5692 5687 5684 5682 5683 5680 5679 5673 5663 5665 5661 5667 5659 5658 5654 5655 5651 5649 5650 5654 5655 5652 5650 5652 5655 5654 5656 5658 5657 5653 5651 5647 5645 5643 5639 5633 5627 5622 5619 5614 5608
5701 5698 5694 5693 5692 5686 5684 5681 5678 5672 5669 5666 5664 5665 5665 5664 5657 5657 5653 5656 5656 5653 5658 5656 5656 5651 5651 5648 5645 5640 5643 5643 5647 5639 5639 5638 5634 5630 5625 5618 5612 5605 5598
5697 5699 5698 5698 5690 5685 5680 5681 5682 5675 5672 5669 5663 5660 5659 5657 5662 5660 5654 5656 5658 5661 5661 5661 5657 5652 5654 5654 5651 5652 5651 5646 5647 5642 5639 5632 5628 5625 5620 5612 5605 5595 5585
5694 5694 5695 5692 5686 5676 5675 5683 5681 5680 5675 5669 5663 5665 5664 5663 5662 5663 5662 5661 5659 5661 5653 5654 5654 5655 5641 5625 5618 5630 5644 5641 5653 5645 5634 5629 5624 5622 5621 5612 5595 5579 5567
5691 5694 5694 5690 5679 5676 5667 5677 5682 5684 5680 5673 5671 5668 5669 5663 5665 5662 5660 5660 5659 5654 5649 5651 5649 5649 5633 5628 5619 5621 5622 5615 5622 5635 5627 5613 5609 5602 5590 5580 5572 5560 5551